Regional Weather Roundup
Issued by NWS

Home | Current Version | Previous Version | Text Only | Print | Product List | Glossary Off
Versions: 1 2 3 4 5 6 7 8 9 10 11 12 13 14 15 16 17 18 19 20 21 22 23 24 25 26 27 28 29 30 31 32 33 34 35 36 37 38 39 40 41 42 43 44 45 46 47 48 49 50

000
ASUS43 KLMK 270610
RWRKY
KENTUCKY REGIONAL WEATHER ROUNDUP
NATIONAL WEATHER SERVICE LOUISVILLE KY
200 AM EDT MON APR 27 2015

NOTE "FAIR" INDICATES FEW OR NO CLOUDS BELOW 12,000 FEET
WITH NO SIGNIFICANT WEATHER AND/OR OBSTRUCTIONS TO VISIBILITY.

KYZ001>023-026-027-061>063-070>075-270700-
WESTERN AND SOUTH CENTRAL KENTUCKY

CITY           SKY/WX    TMP DP  RH WIND       PRES   REMARKS
PADUCAH        CLEAR     49  38  65 N8        29.96R
HENDERSON      CLEAR     50  36  57 N10       29.97S
OWENSBORO      CLEAR     50  38  63 N5        29.96F
HOPKINSVILLE   CLEAR     46  40  79 N8        29.92S
BOWLING GREEN  CLEAR     49  37  63 N3        29.93S
GLASGOW        CLEAR     48  37  65 N3        29.92S
$$

KYZ024-025-028>034-038-045-046-053-270700-
NORTH CENTRAL KENTUCKY

CITY           SKY/WX    TMP DP  RH WIND       PRES   REMARKS
LOUISVILLE/SDF CLEAR     49  36  61 CALM      29.93F
LOUISVILLE/LOU CLEAR     45  36  70 CALM      29.94S
FORT KNOX      CLEAR     44  35  71 NW5       29.92S
$$

KYZ035>037-039>044-047>052-055>060-089>105-270700-
NORTHEAST KENTUCKY

CITY           SKY/WX    TMP DP  RH WIND       PRES   REMARKS
LEXINGTON      CLEAR     44  35  70 N5        29.91S
COVINGTON      PTCLDY    41  33  73 CALM      29.92S
FRANKFORT      CLEAR     44  34  67 N3        29.91S
$$

KYZ054-064>069-076>088-106>120-270700-
SOUTHEAST KENTUCKY

CITY           SKY/WX    TMP DP  RH WIND       PRES   REMARKS
JACKSON        CLEAR     48  32  53 VRB6      29.87S
LONDON         CLEAR     43  36  76 N3        29.88S
SOMERSET       CLEAR     45  36  70 N5        29.91S
MIDDLESBORO    FOG       42  42 100 CALM      29.88S VSB 1/4
MONTICELLO     CLEAR     40  40 100 CALM      29.93S
$$




USA.gov is the U.S. government's official web portal to all federal, state and local government web resources and services.